User: anonymous   Login
Location: Moscow
(55.7500°N, 37.5830°E)
Time: 11:34:26
(UTC+03:00)
Language:

COSMOS 2251 DEB - Orbit

View from above orbital plane
View from above orbital plane
View from above satellite
View from above satellite

Ground track
Ground track

The orbit data is extracted from the following two-line orbital elements,

1 33933U 93036EN  22176.50663762  .00000364  00000-0  14723-3 0  9998
2 33933  74.0889 199.9561 0076310 174.9209 185.2734 14.29687091696679
Epoch (UTC): 25 June 2022 12:09:33
Eccentricity: 0.0076310
inclination: 74.0889°
perigee height: 738 km
apogee height: 847 km
right ascension of ascending node: 199.9561°
argument of perigee: 174.9209°
revolutions per day: 14.29687091
mean anomaly at epoch: 185.2734°
orbit number at epoch: 69667

The dashed part of the orbit path shows where the satellite is in the earth's shadow,  

DLR